Regional Weather Roundup
Issued by NWS

Home | Current Version | Previous Version | Graphics & Text | Print | Product List | Glossary On
Versions: 1 2 3 4 5 6 7 8 9 10 11 12 13 14 15 16 17 18 19 20 21 22 23 24 25 26 27 28 29 30 31 32 33 34 35 36 37 38 39 40 41 42 43 44 45 46 47 48 49 50
000
ASUS43 KBIS 252002
RWRND

NORTH DAKOTA REGIONAL WEATHER ROUNDUP
NATIONAL WEATHER SERVICE BISMARCK ND
300 PM CDT MON JUL 25 2016

NOTE: "FAIR" INDICATES FEW OR NO CLOUDS BELOW 12,000 FEET WITH NO
SIGNIFICANT WEATHER AND/OR OBSTRUCTIONS TO VISIBILITY.


NDZ001>003-009>011-017-252100-
NORTHWEST NORTH DAKOTA

CITY           SKY/WX    TMP DP  RH WIND       PRES   REMARKS
WILLISTON      SUNNY     91  52  26 VRB5G18   29.97S
MINOT          SUNNY     89  63  41 SE5       29.95S HX  90
MINOT AFB      SUNNY     85  64  48 VRB7      29.94S
$$

NDZ018>021-031>035-040>046-252100-
SOUTHWEST NORTH DAKOTA

CITY           SKY/WX    TMP DP  RH WIND       PRES   REMARKS
BISMARCK       SUNNY     90  65  43 SW6       29.95F HX  92
DICKINSON      SUNNY     91  47  21 VRB3      29.97F
GARRISON         N/A     85  65  51 CALM      29.96S
HETTINGER ARPT MOSUNNY   95  48  20 S7        29.98F HX  91
$$

NDZ004>008-012>016-024-026-027-054-252100-
NORTHEAST NORTH DAKOTA

CITY           SKY/WX    TMP DP  RH WIND       PRES   REMARKS
GRAND FORKS    SUNNY     87  66  49 S13       29.95F
GRND FRKS AFB  SUNNY     86  65  49 S14       29.96F
DEVILS LAKE    SUNNY     85  66  53 S12       29.96F
$$

NDZ022-023-025-028>030-036>039-047>053-252100-
SOUTHEAST NORTH DAKOTA

CITY           SKY/WX    TMP DP  RH WIND       PRES   REMARKS
FARGO          SUNNY     89  61  38 SW13G23   29.97F
JAMESTOWN      SUNNY     89  61  38 S20G26    29.95F
$$





USA.gov is the U.S. government's official web portal to all federal, state and local government web resources and services.